Regional Weather Roundup
Issued by NWS

Home | Current Version | Previous Version | Text Only | Print | Product List | Glossary On
Versions: 1 2 3 4 5 6 7 8 9 10 11 12 13 14 15 16 17 18 19 20 21 22 23 24 25 26 27 28 29 30 31 32 33 34 35 36 37 38 39 40 41 42 43 44 45 46 47 48 49 50
895
ASUS44 KLIX 301513
RWRLA
LOUISIANA WEATHER ROUNDUP
NATIONAL WEATHER SERVICE NEW ORLEANS LA
1000 AM CDT THU MAR 30 2017

NOTE: "FAIR" INDICATES FEW OR NO CLOUDS BELOW 12,000 FEET WITH NO
      SIGNIFICANT WEATHER AND/OR OBSTRUCTIONS TO VISIBILITY.
      SKY/WX - SKY CONDITION AND SIGNIFICANT WEATHER.
      TMP - AIR TEMPERATURE.    DP   - DEWPOINT TEMPERATURE.
      RH  - RELATIVE HUMIDITY.  PRES - PRESSURE.
      HX  - HEAT INDEX.         WCI  - WIND CHILL INDEX.

*  THESE STATIONS ARE NOT NWS OR FAA STATIONS AND ARE NOT UNDER
   NWS QUALITY CONTROL.

LAZ040-048-061>063-065-066-069-301600-
SOUTHEAST LOUISIANA

CITY           SKY/WX    TMP DP  RH WIND       PRES   REMARKS
N.O. INTL ARPT TSTM      62  60  93 VRB3      29.93F FOG
N.O. LAKEFRONT TSTM      64  62  93 W8        29.96F FOG
N.O. DOWNTOWN* TSTM      63  61  94 NW8G18    29.98R FOG
RESERVE*       NOT AVBL
SLIDELL        TSTM      61  59  93 W9G29     29.99R VSB 1/2
BATON ROUGE    TSTM      67  64  90 SE17      29.83F
BOOTHVILLE     CLOUDY    76  72  87 S13G20    29.91R
BELLE CHASSE   TSTM      66  66 100 W8G18     29.97R VSB 3/4
BOGALUSA*      NOT AVBL
GALLIANO*      CLOUDY    65  58  78 NW17G30   29.94R
NEW ROADS*       N/A     65  62  90 SE7       29.84F
GONZALES*      NOT AVBL
HAMMOND*       RAIN      63  59  88 S6        29.92R
HOUMA*         LGT RAIN  63  61  94 NW3       29.93R
PORT FOURCHON* MOSUNNY   75  70  83 SE9       29.89S

$$

LAZ041-044-053-054-301600-
SOUTHWEST LOUISIANA

CITY           SKY/WX    TMP DP  RH WIND       PRES   REMARKS
LAKE CHARLES   MOSUNNY   66  60  81 N13       29.85F
LAFAYETTE      CLOUDY    69  65  86 S6        29.84S
PATTERSON      LGT RAIN  62  61  96 E5        29.91F FOG
SALT POINT       N/A     63  61  93 VRB5      29.86F
NEW IBERIA     CLOUDY    66  61  84 SE13      29.83F
CHENAULT AIRPK MOSUNNY   66  59  77 N8        29.86S

$$

LAZ027-028-301600-
CENTRAL LOUISIANA

CITY           SKY/WX    TMP DP  RH WIND       PRES   REMARKS
FORT POLK      PTSUNNY   68  57  68 N10       29.86F
ALEXANDRIA INT CLOUDY    62  57  83 NW10      29.83F
ALEXANDRIA     MOSUNNY   66  61  84 W6        29.83F

$$

LAZ001-002-301600-
NORTHWEST LOUISIANA

CITY           SKY/WX    TMP DP  RH WIND       PRES   REMARKS
SHREVEPORT     MOSUNNY   61  46  57 NW10      29.86R
BARKSDALE AFB  MOSUNNY   60  45  59 NW8       29.86R
DTN SHREVEPORT MOSUNNY   60  45  57 VRB3      29.87R

$$

LAZ014-016-301600-
NORTHEAST LOUISIANA

CITY           SKY/WX    TMP DP  RH WIND       PRES   REMARKS
MONROE         CLOUDY    65  58  78 W13       29.83S
TALLULAH       NOT AVBL

$$





USA.gov is the U.S. government's official web portal to all federal, state and local government web resources and services.